Location: Huppendorf
(49.9333°N, 11.1500°E)
Time: 06:41:40
(UTC+00:00)

STARLINK-40 - Pass Details

Date: 27 February 2020
Orbit: 529 x 530 km, 53.0° (Epoch: 10 April)

Event Time Altitude Azimuth Distance (km) Brightness Sun altitude
Rises 17:41:06 0° 269° (W) 2,667 9.7 -8.5°
Reaches altitude 10° 17:43:21 10° 274° (W) 1,778 7.9 -8.8°
Maximum altitude 17:47:19 56° 354° (N) 636 4.0 -9.5°
Enters shadow 17:50:50 13° 71° (ENE) 1,602 5.4 -10.0°
